,,,PA_Meas_PMT16A,,PR_Meas_QMR101_102,,RH_Meas_QMH101,,SR_Meas_QMS101,,TA_Meas_QMH101,,GenWind,,GenWind,
date,time,status,PA,status,PR,status,RH,status,SR,status,TA,status,DirAvg,status,SpdAvg,
2010-05-02, 00:00:05,VALID,1001.23,VALID,0,VALID,83.9945,VALID,0,VALID,25.5945,VALID,153,VALID,0.414063,
2010-05-02, 00:01:05,VALID,1001.27,VALID,0,VALID,84.2768,VALID,0,VALID,25.5359,VALID,153,VALID,0.373437,
2010-05-02, 00:02:05,VALID,1001.27,VALID,0,VALID,84.2157,VALID,0,VALID,25.4949,VALID,101,VALID,0.399219,
2010-05-02, 00:03:05,VALID,1001.25,VALID,0,VALID,84.6735,VALID,0,VALID,25.3583,VALID,14,VALID,0.698438,
2010-05-02, 00:04:05,VALID,1001.28,VALID,0,VALID,85.5509,VALID,0,VALID,25.1826,VALID,8,VALID,0.683203,
2010-05-02, 00:05:05,VALID,1001.25,VALID,0,VALID,86.6343,VALID,0,VALID,25.046,VALID,355,VALID,0.778906,
2010-05-02, 00:06:05,VALID,1001.27,VALID,0,VALID,87.0692,VALID,0,VALID,24.9465,VALID,355,VALID,0.633984,
2010-05-02, 00:07:05,VALID,1001.26,VALID,0,VALID,87.5041,VALID,0.112286,VALID,24.8879,VALID,355,VALID,0.724609,
2010-05-02, 00:08:05,VALID,1001.3,VALID,0,VALID,87.733,VALID,0,VALID,24.8313,VALID,355,VALID,0.387891,
2010-05-02, 00:09:05,VALID,1001.31,VALID,0,VALID,88.2976,VALID,0,VALID,24.7727,VALID,355,VALID,0.137109,
2010-05-02, 00:10:05,VALID,1001.33,VALID,0,VALID,88.6867,VALID,0,VALID,24.7532,VALID,355,VALID,0,
2010-05-02, 00:11:05,VALID,1001.3,VALID,0,VALID,88.8088,VALID,0.112286,VALID,24.7337,VALID,355,VALID,0,
2010-05-02, 00:12:05,VALID,1001.34,VALID,0,VALID,88.9385,VALID,0,VALID,24.7142,VALID,355,VALID,0,
2010-05-02, 00:13:05,VALID,1001.31,VALID,0,VALID,89.0377,VALID,0,VALID,24.6946,VALID,355,VALID,0,
2010-05-02, 00:14:05,VALID,1001.35,VALID,0,VALID,88.9843,VALID,0.112286,VALID,24.6751,VALID,355,VALID,0,
2010-05-02, 00:15:05,VALID,1001.31,VALID,0,VALID,89.2055,VALID,0,VALID,24.6556,VALID,355,VALID,0,
2010-05-02, 00:16:05,VALID,1001.29,VALID,0,VALID,89.3428,VALID,0,VALID,24.6556,VALID,355,VALID,0,
2010-05-02, 00:17:05,VALID,1001.26,VALID,0,VALID,89.4115,VALID,0,VALID,24.638,VALID,355,VALID,0,
2010-05-02, 00:18:05,VALID,1001.24,VALID,0,VALID,89.3581,VALID,0,VALID,24.638,VALID,355,VALID,0,
2010-05-02, 00:19:05,VALID,1001.24,VALID,0,VALID,89.4115,VALID,0,VALID,24.6184,VALID,355,VALID,0,
2010-05-02, 00:20:05,VALID,1001.19,VALID,0,VALID,89.4878,VALID,0,VALID,24.638,VALID,355,VALID,0,
2010-05-02, 00:21:05,VALID,1001.17,VALID,0,VALID,89.4039,VALID,0,VALID,24.6965,VALID,355,VALID,0,
2010-05-02, 00:22:05,VALID,1001.17,VALID,0,VALID,89.1368,VALID,0,VALID,24.7551,VALID,355,VALID,0.142188,
2010-05-02, 00:23:05,VALID,1001.16,VALID,0,VALID,88.8546,VALID,0,VALID,24.8136,VALID,355,VALID,0.03125,
2010-05-02, 00:24:05,VALID,1001.13,VALID,0,VALID,88.6028,VALID,0,VALID,24.8527,VALID,355,VALID,0,
2010-05-02, 00:25:05,VALID,1001.17,VALID,0,VALID,88.3434,VALID,0,VALID,24.8917,VALID,355,VALID,0,
2010-05-02, 00:26:05,VALID,1001.18,VALID,0,VALID,88.0916,VALID,0,VALID,24.9308,VALID,355,VALID,0,
2010-05-02, 00:27:05,VALID,1001.17,VALID,0,VALID,87.8169,VALID,0,VALID,24.9893,VALID,355,VALID,0,
2010-05-02, 00:28:05,VALID,1001.16,VALID,0,VALID,87.6186,VALID,0,VALID,24.9893,VALID,355,VALID,0,
2010-05-02, 00:29:05,VALID,1001.19,VALID,0,VALID,87.4812,VALID,0,VALID,25.0107,VALID,355,VALID,0,
2010-05-02, 00:30:05,VALID,1001.19,VALID,0,VALID,87.1913,VALID,0,VALID,25.0088,VALID,355,VALID,0.460156,
2010-05-02, 00:31:05,VALID,1001.2,VALID,0,VALID,87.054,VALID,0,VALID,25.0284,VALID,109,VALID,0.842969,
2010-05-02, 00:32:05,VALID,1001.17,VALID,0,VALID,86.9166,VALID,0,VALID,25.0284,VALID,159,VALID,1.04375,
2010-05-02, 00:33:05,VALID,1001.17,VALID,0,VALID,86.5199,VALID,0,VALID,25.0674,VALID,154,VALID,1.1918,
2010-05-02, 00:34:05,VALID,1001.15,VALID,0,VALID,86.291,VALID,0,VALID,25.1083,VALID,155,VALID,0.898828,
2010-05-02, 00:35:05,VALID,1001.13,VALID,0,VALID,86.3139,VALID,0,VALID,25.126,VALID,155,VALID,0.915234,
2010-05-02, 00:36:05,VALID,1001.11,VALID,0,VALID,86.2529,VALID,0,VALID,25.165,VALID,152,VALID,0.95,
2010-05-02, 00:37:05,VALID,1001.05,VALID,0,VALID,86.1613,VALID,0,VALID,25.165,VALID,152,VALID,0.898828,
2010-05-02, 00:38:05,VALID,1001.08,VALID,0,VALID,86.0469,VALID,0,VALID,25.165,VALID,152,VALID,0.94375,
2010-05-02, 00:39:05,VALID,1001.02,VALID,0,VALID,86.085,VALID,0,VALID,25.1455,VALID,152,VALID,1.05039,
2010-05-02, 00:40:05,VALID,1001.06,VALID,0,VALID,86.2452,VALID,0,VALID,25.126,VALID,150,VALID,0.871484,
2010-05-02, 00:41:05,VALID,1001.07,VALID,0,VALID,86.5351,VALID,0,VALID,25.0869,VALID,150,VALID,0.758594,
2010-05-02, 00:42:05,VALID,1001.06,VALID,0,VALID,86.8098,VALID,0,VALID,25.0479,VALID,150,VALID,0.724219,
2010-05-02, 00:43:05,VALID,1001.03,VALID,0,VALID,86.9853,VALID,0,VALID,25.0088,VALID,150,VALID,0.475,
2010-05-02, 00:44:05,VALID,1001.03,VALID,0,VALID,87.2523,VALID,0,VALID,24.9698,VALID,150,VALID,0.323438,
2010-05-02, 00:45:05,VALID,1001.03,VALID,0,VALID,87.4354,VALID,0,VALID,24.9717,VALID,150,VALID,0.230469,
2010-05-02, 00:46:05,VALID,1001.01,VALID,0,VALID,87.7483,VALID,0,VALID,24.9112,VALID,152,VALID,0.342969,
2010-05-02, 00:47:05,VALID,1000.98,VALID,0,VALID,87.9771,VALID,0,VALID,24.9112,VALID,152,VALID,0.198437,
2010-05-02, 00:48:05,VALID,1000.98,VALID,0,VALID,88.1297,VALID,0,VALID,24.8917,VALID,152,VALID,0,
2010-05-02, 00:49:05,VALID,1000.96,VALID,0,VALID,88.2442,VALID,0,VALID,24.8917,VALID,152,VALID,0.00234375,
2010-05-02, 00:50:05,VALID,1000.99,VALID,0,VALID,88.4578,VALID,0,VALID,24.8722,VALID,152,VALID,0.0449219,
2010-05-02, 00:51:05,VALID,1000.97,VALID,0,VALID,88.5723,VALID,0,VALID,24.8527,VALID,152,VALID,0,
2010-05-02, 00:52:05,VALID,1000.96,VALID,0,VALID,88.7172,VALID,0,VALID,24.8332,VALID,152,VALID,0.208984,
2010-05-02, 00:53:05,VALID,1000.97,VALID,0,VALID,88.8774,VALID,0,VALID,24.8136,VALID,151,VALID,0.553906,
2010-05-02, 00:54:05,VALID,1000.94,VALID,0,VALID,88.9461,VALID,0,VALID,24.8136,VALID,142,VALID,0.875781,
2010-05-02, 00:55:05,VALID,1000.95,VALID,0,VALID,88.8698,VALID,0,VALID,24.8136,VALID,142,VALID,0.623438,
2010-05-02, 00:56:05,VALID,1000.92,VALID,0,VALID,88.6714,VALID,0,VALID,24.8332,VALID,182,VALID,0.749219,
2010-05-02, 00:57:05,VALID,1000.87,VALID,0,VALID,88.7554,VALID,0,VALID,24.9308,VALID,100,VALID,1.34687,
2010-05-02, 00:58:05,VALID,1000.87,VALID,0,VALID,88.5189,VALID,0,VALID,24.9698,VALID,120,VALID,0.458594,
2010-05-02, 00:59:05,VALID,1000.84,VALID,0,VALID,88.412,VALID,0,VALID,25.0088,VALID,99,VALID,0.537891,
2010-05-02, 01:00:05,VALID,1000.81,VALID,0,VALID,88.2747,VALID,0,VALID,25.0284,VALID,62,VALID,0.593359,
2010-05-02, 01:01:05,VALID,1000.74,VALID,0,VALID,88.4197,VALID,0,VALID,25.0479,VALID,134,VALID,0.924219,
2010-05-02, 01:02:05,VALID,1000.74,VALID,0,VALID,87.9466,VALID,0,VALID,25.1064,VALID,127,VALID,1.13047,
2010-05-02, 01:03:05,VALID,1000.74,VALID,0,VALID,87.939,VALID,0,VALID,25.126,VALID,126,VALID,0.729688,
2010-05-02, 01:04:05,VALID,1000.73,VALID,0,VALID,88.0306,VALID,0,VALID,25.126,VALID,126,VALID,0.390625,
2010-05-02, 01:05:05,VALID,1000.7,VALID,0,VALID,88.2594,VALID,0,VALID,25.1455,VALID,126,VALID,0.203906,
2010-05-02, 01:06:05,VALID,1000.67,VALID,0,VALID,88.3892,VALID,0,VALID,25.1045,VALID,126,VALID,0.00273437,
2010-05-02, 01:07:05,VALID,1000.69,VALID,0,VALID,88.4578,VALID,0,VALID,25.1455,VALID,126,VALID,0,
2010-05-02, 01:08:05,VALID,1000.67,VALID,0,VALID,88.6104,VALID,0,VALID,25.126,VALID,126,VALID,0,
2010-05-02, 01:09:05,VALID,1000.63,VALID,0,VALID,88.6257,VALID,0,VALID,25.1064,VALID,126,VALID,0,
2010-05-02, 01:10:05,VALID,1000.61,VALID,0,VALID,88.7249,VALID,0,VALID,25.1064,VALID,126,VALID,0,
2010-05-02, 01:11:05,VALID,1000.61,VALID,0,VALID,88.8088,VALID,0,VALID,25.1045,VALID,126,VALID,0,
2010-05-02, 01:12:05,VALID,1000.58,VALID,0,VALID,88.8088,VALID,0,VALID,25.1064,VALID,126,VALID,0,
2010-05-02, 01:13:05,VALID,1000.58,VALID,0,VALID,88.7935,VALID,0,VALID,25.1064,VALID,126,VALID,0,
2010-05-02, 01:14:05,VALID,1000.56,VALID,0,VALID,88.9232,VALID,0,VALID,25.126,VALID,126,VALID,0,
2010-05-02, 01:15:05,VALID,1000.54,VALID,0,VALID,88.9232,VALID,0,VALID,25.0869,VALID,126,VALID,0,
2010-05-02, 01:16:05,VALID,1000.55,VALID,0,VALID,89.0453,VALID,0,VALID,25.0869,VALID,126,VALID,0,
2010-05-02, 01:17:05,VALID,1000.51,VALID,0,VALID,89.1368,VALID,0,VALID,25.0674,VALID,126,VALID,0,
2010-05-02, 01:18:05,VALID,1000.5,VALID,0,VALID,89.3428,VALID,0,VALID,25.0265,VALID,126,VALID,0,
2010-05-02, 01:19:05,VALID,1000.49,VALID,0,VALID,89.4726,VALID,0,VALID,25.0265,VALID,126,VALID,0,
2010-05-02, 01:20:05,VALID,1000.45,VALID,0,VALID,89.5489,VALID,0,VALID,25.0284,VALID,126,VALID,0,
2010-05-02, 01:21:05,VALID,1000.44,VALID,0,VALID,89.5794,VALID,0,VALID,24.9874,VALID,126,VALID,0,
2010-05-02, 01:22:05,VALID,1000.42,VALID,0,VALID,89.5107,VALID,0,VALID,25.0088,VALID,133,VALID,0,
2010-05-02, 01:23:05,VALID,1000.45,VALID,0,VALID,89.114,VALID,0,VALID,24.9893,VALID,207,VALID,0,
2010-05-02, 01:24:05,VALID,1000.43,VALID,0,VALID,88.9995,VALID,0,VALID,24.9893,VALID,207,VALID,0,
2010-05-02, 01:25:05,VALID,1000.43,VALID,0,VALID,88.8622,VALID,0,VALID,25.0284,VALID,207,VALID,0,
2010-05-02, 01:26:05,VALID,1000.44,VALID,0,VALID,88.8546,VALID,0,VALID,25.0284,VALID,207,VALID,0,
2010-05-02, 01:27:05,VALID,1000.41,VALID,0,VALID,89.1445,VALID,0,VALID,25.0479,VALID,207,VALID,0,
2010-05-02, 01:28:05,VALID,1000.45,VALID,0,VALID,89.2208,VALID,0,VALID,25.0069,VALID,260,VALID,0,
2010-05-02, 01:29:05,VALID,1000.43,VALID,0,VALID,89.3047,VALID,0,VALID,24.9874,VALID,260,VALID,0.608594,
2010-05-02, 01:30:05,VALID,1000.44,VALID,0,VALID,89.5565,VALID,0,VALID,24.9698,VALID,283,VALID,0.699219,
2010-05-02, 01:31:05,VALID,1000.44,VALID,0,VALID,89.7472,VALID,0,VALID,24.9308,VALID,316,VALID,0.476563,
2010-05-02, 01:32:05,VALID,1000.4,VALID,0,VALID,89.9837,VALID,0,VALID,24.8722,VALID,316,VALID,0.460938,
2010-05-02, 01:33:05,VALID,1000.38,VALID,0,VALID,90.1897,VALID,0,VALID,24.8332,VALID,316,VALID,0.0976563,
2010-05-02, 01:34:05,VALID,1000.4,VALID,0,VALID,90.3957,VALID,0,VALID,24.8136,VALID,316,VALID,0,
2010-05-02, 01:35:05,VALID,1000.36,VALID,0,VALID,90.556,VALID,0,VALID,24.7551,VALID,316,VALID,0,
2010-05-02, 01:36:05,VALID,1000.32,VALID,0,VALID,90.6399,VALID,0,VALID,24.7551,VALID,316,VALID,0,
2010-05-02, 01:37:05,VALID,1000.34,VALID,0,VALID,90.6475,VALID,0,VALID,24.6965,VALID,316,VALID,0,
2010-05-02, 01:38:05,VALID,1000.31,VALID,0,VALID,90.7009,VALID,0,VALID,24.677,VALID,316,VALID,0,
2010-05-02, 01:39:05,VALID,1000.29,VALID,0,VALID,90.762,VALID,0,VALID,24.6184,VALID,316,VALID,0,
2010-05-02, 01:40:05,VALID,1000.29,VALID,0,VALID,90.8077,VALID,0,VALID,24.5599,VALID,316,VALID,0,
2010-05-02, 01:41:05,VALID,1000.3,VALID,0,VALID,91.2121,VALID,0,VALID,24.4995,VALID,316,VALID,0,
2010-05-02, 01:42:05,VALID,1000.27,VALID,0,VALID,91.502,VALID,0,VALID,24.519,VALID,316,VALID,0.0113281,
2010-05-02, 01:43:05,VALID,1000.27,VALID,0,VALID,91.6012,VALID,0,VALID,24.5404,VALID,316,VALID,0.278516,
2010-05-02, 01:44:05,VALID,1000.27,VALID,0,VALID,91.4868,VALID,0,VALID,24.5013,VALID,316,VALID,0.521875,
2010-05-02, 01:45:05,VALID,1000.27,VALID,0,VALID,91.3189,VALID,0,VALID,24.5209,VALID,316,VALID,0.569922,
2010-05-02, 01:46:05,VALID,1000.27,VALID,0,VALID,91.0824,VALID,0,VALID,24.5599,VALID,316,VALID,0.637891,
2010-05-02, 01:47:05,VALID,1000.24,VALID,0,VALID,90.9069,VALID,0,VALID,24.5794,VALID,214,VALID,0.682422,
2010-05-02, 01:48:05,VALID,1000.22,VALID,0,VALID,90.7391,VALID,0,VALID,24.6184,VALID,140,VALID,0.672656,
2010-05-02, 01:49:05,VALID,1000.2,VALID,0,VALID,90.4339,VALID,0,VALID,24.677,VALID,140,VALID,0.673047,
2010-05-02, 01:50:05,VALID,1000.21,VALID,0,VALID,90.205,VALID,0,VALID,24.6965,VALID,141,VALID,0.558594,
2010-05-02, 01:51:05,VALID,1000.25,VALID,0,VALID,90.0448,VALID,0,VALID,24.7551,VALID,140,VALID,0.748438,
2010-05-02, 01:52:05,VALID,1000.21,VALID,0,VALID,89.8769,VALID,0,VALID,24.7746,VALID,140,VALID,0.803125,
2010-05-02, 01:53:05,VALID,1000.22,VALID,0,VALID,89.7777,VALID,0,VALID,24.7941,VALID,141,VALID,1.21094,
2010-05-02, 01:54:05,VALID,1000.26,VALID,0,VALID,89.6633,VALID,0,VALID,24.7941,VALID,141,VALID,1.22266,
2010-05-02, 01:55:04,VALID,1000.22,VALID,0,VALID,89.6786,VALID,0,VALID,24.8136,VALID,143,VALID,0.835156,
2010-05-02, 01:56:04,VALID,1000.25,VALID,0,VALID,89.7549,VALID,0,VALID,24.7941,VALID,160,VALID,1.30078,
2010-05-02, 01:57:04,VALID,1000.24,VALID,0,VALID,89.7167,VALID,0,VALID,24.7941,VALID,159,VALID,1.25469,
2010-05-02, 01:58:04,VALID,1000.25,VALID,0,VALID,89.7549,VALID,0,VALID,24.7941,VALID,163,VALID,1.15469,
2010-05-02, 01:59:04,VALID,1000.24,VALID,0,VALID,89.8235,VALID,0,VALID,24.8136,VALID,165,VALID,0.926172,
2010-05-02, 02:00:04,VALID,1000.22,VALID,0,VALID,89.7854,VALID,0,VALID,24.8117,VALID,162,VALID,0.861328,
2010-05-02, 02:01:04,VALID,1000.21,VALID,0,VALID,89.6251,VALID,0,VALID,24.8332,VALID,161,VALID,0.833594,
2010-05-02, 02:02:04,VALID,1000.22,VALID,0,VALID,89.4802,VALID,0.112286,VALID,24.8703,VALID,161,VALID,0.344141,
2010-05-02, 02:03:04,VALID,1000.19,VALID,0,VALID,89.3428,VALID,0,VALID,24.8703,VALID,161,VALID,0.525781,
2010-05-02, 02:04:04,VALID,1000.18,VALID,0,VALID,89.0758,VALID,0,VALID,24.9093,VALID,161,VALID,0.484375,
2010-05-02, 02:05:04,VALID,1000.17,VALID,0,VALID,88.6257,VALID,0,VALID,24.9679,VALID,161,VALID,0.0226563,
2010-05-02, 02:06:04,VALID,1000.16,VALID,0,VALID,88.3357,VALID,0.112286,VALID,25.0069,VALID,161,VALID,0.453906,
2010-05-02, 02:07:04,VALID,1000.14,VALID,0,VALID,88.0229,VALID,0,VALID,25.0655,VALID,161,VALID,0.248437,
2010-05-02, 02:08:04,VALID,1000.17,VALID,0,VALID,87.6949,VALID,0.112286,VALID,25.085,VALID,161,VALID,0.286328,
2010-05-02, 02:09:04,VALID,1000.16,VALID,0,VALID,87.8169,VALID,0.112286,VALID,25.1241,VALID,216,VALID,0.449219,
2010-05-02, 02:10:04,VALID,1000.15,VALID,0,VALID,87.7101,VALID,0,VALID,25.1241,VALID,241,VALID,0.398828,
2010-05-02, 02:11:04,VALID,1000.15,VALID,0,VALID,87.6033,VALID,0,VALID,25.1045,VALID,224,VALID,0.380469,
2010-05-02, 02:12:04,VALID,1000.14,VALID,0,VALID,87.4583,VALID,0.112286,VALID,25.1241,VALID,224,VALID,0.490234,
2010-05-02, 02:13:04,VALID,1000.17,VALID,0,VALID,87.3286,VALID,0.112286,VALID,25.1241,VALID,224,VALID,0.266016,
2010-05-02, 02:14:04,VALID,1000.13,VALID,0,VALID,87.2676,VALID,0,VALID,25.1241,VALID,207,VALID,0.392188,
2010-05-02, 02:15:04,VALID,1000.14,VALID,0,VALID,87.1608,VALID,0.112286,VALID,25.1221,VALID,197,VALID,0.714453,
2010-05-02, 02:16:04,VALID,1000.14,VALID,0,VALID,86.9395,VALID,0,VALID,25.2021,VALID,186,VALID,0.796094,
2010-05-02, 02:17:04,VALID,1000.1,VALID,0,VALID,86.6191,VALID,0,VALID,25.2431,VALID,186,VALID,0.826172,
2010-05-02, 02:18:04,VALID,1000.1,VALID,0,VALID,86.4817,VALID,0,VALID,25.2626,VALID,181,VALID,0.66875,
2010-05-02, 02:19:04,VALID,1000.12,VALID,0,VALID,86.3597,VALID,0,VALID,25.2217,VALID,156,VALID,0.910156,
2010-05-02, 02:20:04,VALID,1000.13,VALID,0,VALID,86.4054,VALID,0,VALID,25.2431,VALID,156,VALID,0.784375,
2010-05-02, 02:21:04,VALID,1000.12,VALID,0,VALID,86.497,VALID,0,VALID,25.2021,VALID,156,VALID,0.762891,
2010-05-02, 02:22:04,VALID,1000.08,VALID,0,VALID,86.5962,VALID,0,VALID,25.1826,VALID,156,VALID,0.552344,
2010-05-02, 02:23:04,VALID,1000.07,VALID,0,VALID,86.3902,VALID,0,VALID,25.165,VALID,156,VALID,0.396484,
2010-05-02, 02:24:04,VALID,1000.09,VALID,0,VALID,86.5428,VALID,0,VALID,25.126,VALID,138,VALID,0.738281,
2010-05-02, 02:25:04,VALID,1000.07,VALID,0,VALID,86.8632,VALID,0,VALID,25.0869,VALID,124,VALID,0.737891,
2010-05-02, 02:26:04,VALID,1000.05,VALID,0,VALID,87.0997,VALID,0,VALID,25.0479,VALID,124,VALID,0.644922,
2010-05-02, 02:27:04,VALID,1000.03,VALID,0,VALID,87.0921,VALID,0,VALID,24.9679,VALID,124,VALID,0.605469,
2010-05-02, 02:28:04,VALID,1000.02,VALID,0,VALID,87.2294,VALID,0,VALID,24.9308,VALID,124,VALID,0.276172,
2010-05-02, 02:29:04,VALID,1000.03,VALID,0,VALID,87.382,VALID,0,VALID,24.8527,VALID,124,VALID,0.01875,
2010-05-02, 02:30:04,VALID,1000.01,VALID,0,VALID,87.878,VALID,0,VALID,24.7941,VALID,124,VALID,0,
2010-05-02, 02:31:04,VALID,1000.06,VALID,0,VALID,88.2823,VALID,0,VALID,24.7142,VALID,124,VALID,0.209766,
2010-05-02, 02:32:04,VALID,1000.03,VALID,0,VALID,88.4273,VALID,0,VALID,24.677,VALID,124,VALID,0.406641,
2010-05-02, 02:33:04,VALID,1000.02,VALID,0,VALID,88.6486,VALID,0,VALID,24.638,VALID,124,VALID,0.682813,
2010-05-02, 02:34:04,VALID,1000.03,VALID,0,VALID,89.0987,VALID,0,VALID,24.5775,VALID,124,VALID,0.810938,
2010-05-02, 02:35:04,VALID,1000.04,VALID,0,VALID,89.32,VALID,0,VALID,24.5794,VALID,124,VALID,0.858594,
2010-05-02, 02:36:04,VALID,1000.06,VALID,0,VALID,89.6175,VALID,0,VALID,24.5404,VALID,124,VALID,0.861719,
2010-05-02, 02:37:04,VALID,1000.06,VALID,0,VALID,89.7014,VALID,0,VALID,24.5404,VALID,124,VALID,0.819922,
2010-05-02, 02:38:04,VALID,1000.09,VALID,0,VALID,89.6633,VALID,0,VALID,24.5209,VALID,124,VALID,0.913672,
2010-05-02, 02:39:04,VALID,1000.05,VALID,0,VALID,89.6633,VALID,0,VALID,24.5209,VALID,124,VALID,1.00742,
2010-05-02, 02:40:04,VALID,1000.06,VALID,0,VALID,89.6938,VALID,0,VALID,24.4995,VALID,124,VALID,1.00469,
2010-05-02, 02:41:04,VALID,1000.03,VALID,0,VALID,89.6328,VALID,0,VALID,24.5209,VALID,124,VALID,1.08008,
2010-05-02, 02:42:04,VALID,1000.05,VALID,0,VALID,89.6557,VALID,0,VALID,24.5013,VALID,135,VALID,1.16836,
2010-05-02, 02:43:04,VALID,1000.07,VALID,0,VALID,89.7472,VALID,0,VALID,24.5013,VALID,143,VALID,1.09844,
2010-05-02, 02:44:04,VALID,1000.06,VALID,0,VALID,89.6633,VALID,0,VALID,24.5013,VALID,148,VALID,0.863281,
2010-05-02, 02:45:04,VALID,1000.06,VALID,0,VALID,89.6709,VALID,0,VALID,24.5013,VALID,159,VALID,0.858984,
2010-05-02, 02:46:04,VALID,1000.04,VALID,0,VALID,89.8617,VALID,0,VALID,24.5209,VALID,181,VALID,0.989062,
2010-05-02, 02:47:04,VALID,1000.03,VALID,0,VALID,89.8464,VALID,0,VALID,24.5404,VALID,182,VALID,0.927734,
2010-05-02, 02:48:04,VALID,1000.05,VALID,0,VALID,89.8159,VALID,0,VALID,24.5404,VALID,181,VALID,0.828125,
2010-05-02, 02:49:04,VALID,1000.03,VALID,0,VALID,89.6938,VALID,0,VALID,24.5404,VALID,177,VALID,0.805078,
2010-05-02, 02:50:04,VALID,1000.04,VALID,0,VALID,89.6557,VALID,0,VALID,24.5599,VALID,145,VALID,1.11602,
2010-05-02, 02:51:04,VALID,1000.07,VALID,0,VALID,89.526,VALID,0,VALID,24.5404,VALID,133,VALID,0.941797,
2010-05-02, 02:52:04,VALID,1000.06,VALID,0,VALID,89.8083,VALID,0,VALID,24.5209,VALID,160,VALID,0.570313,
2010-05-02, 02:53:04,VALID,1000.08,VALID,0,VALID,89.8846,VALID,0,VALID,24.5209,VALID,167,VALID,0.715625,
2010-05-02, 02:54:04,VALID,1000.1,VALID,0,VALID,89.8083,VALID,0,VALID,24.5404,VALID,167,VALID,0.606641,
2010-05-02, 02:55:04,VALID,1000.12,VALID,0,VALID,89.8006,VALID,0,VALID,24.5209,VALID,163,VALID,0.711719,
2010-05-02, 02:56:04,VALID,1000.12,VALID,0,VALID,89.999,VALID,0,VALID,24.5209,VALID,161,VALID,0.486719,
2010-05-02, 02:57:04,VALID,1000.12,VALID,0,VALID,89.9151,VALID,0,VALID,24.4604,VALID,161,VALID,0.450781,
2010-05-02, 02:58:04,VALID,1000.12,VALID,0,VALID,90.0295,VALID,0,VALID,24.4409,VALID,76,VALID,0.495313,
2010-05-02, 02:59:04,VALID,1000.12,VALID,0,VALID,89.9532,VALID,0,VALID,24.4037,VALID,76,VALID,0.422656,
2010-05-02, 03:00:04,VALID,1000.11,VALID,0,VALID,90.0066,VALID,0,VALID,24.3452,VALID,76,VALID,0.460156,
2010-05-02, 03:01:04,VALID,1000.13,VALID,0,VALID,90.3652,VALID,0,VALID,24.3062,VALID,76,VALID,0.331641,
2010-05-02, 03:02:04,VALID,1000.11,VALID,0,VALID,90.6551,VALID,0,VALID,24.2866,VALID,76,VALID,0.173438,
2010-05-02, 03:03:04,VALID,1000.14,VALID,0,VALID,90.8154,VALID,0,VALID,24.2476,VALID,76,VALID,0.0671875,
2010-05-02, 03:04:04,VALID,1000.12,VALID,0,VALID,90.9527,VALID,0,VALID,24.2281,VALID,76,VALID,0.138672,
2010-05-02, 03:05:04,VALID,1000.16,VALID,0,VALID,91.1663,VALID,0,VALID,24.2067,VALID,76,VALID,0.208203,
2010-05-02, 03:06:04,VALID,1000.17,VALID,0,VALID,91.3037,VALID,0,VALID,24.2281,VALID,76,VALID,0.0363281,
2010-05-02, 03:07:04,VALID,1000.14,VALID,0,VALID,91.3266,VALID,0,VALID,24.1872,VALID,76,VALID,0,
2010-05-02, 03:08:04,VALID,1000.15,VALID,0,VALID,91.1511,VALID,0,VALID,24.1287,VALID,76,VALID,0,
2010-05-02, 03:09:04,VALID,1000.2,VALID,0,VALID,91.2731,VALID,0,VALID,24.1305,VALID,76,VALID,0,
2010-05-02, 03:10:04,VALID,1000.17,VALID,0,VALID,91.3723,VALID,0,VALID,24.1092,VALID,76,VALID,0,
2010-05-02, 03:11:04,VALID,1000.18,VALID,0,VALID,91.5326,VALID,0,VALID,24.1092,VALID,76,VALID,0,
2010-05-02, 03:12:04,VALID,1000.19,VALID,0,VALID,91.6012,VALID,0,VALID,24.1305,VALID,124,VALID,0,
2010-05-02, 03:13:04,VALID,1000.21,VALID,0,VALID,91.6165,VALID,0,VALID,24.15,VALID,136,VALID,0.551953,
2010-05-02, 03:14:04,VALID,1000.16,VALID,0,VALID,91.586,VALID,0,VALID,24.1891,VALID,145,VALID,0.857031,
2010-05-02, 03:15:04,VALID,1000.14,VALID,0,VALID,91.4257,VALID,0,VALID,24.2263,VALID,145,VALID,0.628516,
2010-05-02, 03:16:04,VALID,1000.14,VALID,0,VALID,91.3189,VALID,0,VALID,24.3043,VALID,151,VALID,0.638281,
2010-05-02, 03:17:04,VALID,1000.15,VALID,0,VALID,90.8764,VALID,0,VALID,24.3842,VALID,161,VALID,0.641797,
2010-05-02, 03:18:04,VALID,1000.15,VALID,0,VALID,90.5483,VALID,0,VALID,24.4233,VALID,161,VALID,0.440234,
2010-05-02, 03:19:04,VALID,1000.15,VALID,0,VALID,90.2355,VALID,0,VALID,24.4233,VALID,161,VALID,0.203125,
2010-05-02, 03:20:04,VALID,1000.14,VALID,0,VALID,89.9456,VALID,0,VALID,24.4233,VALID,161,VALID,0.423438,
2010-05-02, 03:21:04,VALID,1000.16,VALID,0,VALID,89.7854,VALID,0,VALID,24.3629,VALID,142,VALID,0.740234,
2010-05-02, 03:22:04,VALID,1000.13,VALID,0,VALID,90.0448,VALID,0,VALID,24.3647,VALID,120,VALID,0.875391,
2010-05-02, 03:23:04,VALID,1000.15,VALID,0,VALID,90.3728,VALID,0,VALID,24.3433,VALID,112,VALID,0.707031,
2010-05-02, 03:24:04,VALID,1000.12,VALID,0,VALID,90.1287,VALID,0,VALID,24.3452,VALID,112,VALID,0.396094,
2010-05-02, 03:25:04,VALID,1000.13,VALID,0,VALID,90.3576,VALID,0,VALID,24.3257,VALID,112,VALID,0.264844,
2010-05-02, 03:26:04,VALID,1000.09,VALID,0,VALID,90.472,VALID,0,VALID,24.3062,VALID,112,VALID,0.430859,
2010-05-02, 03:27:04,VALID,1000.1,VALID,0,VALID,90.5483,VALID,0,VALID,24.2848,VALID,112,VALID,0.365234,
2010-05-02, 03:28:04,VALID,1000.06,VALID,0,VALID,90.5865,VALID,0,VALID,24.2866,VALID,112,VALID,0.419531,
2010-05-02, 03:29:04,VALID,1000.09,VALID,0,VALID,90.6094,VALID,0,VALID,24.2866,VALID,112,VALID,0.453516,
2010-05-02, 03:30:04,VALID,1000.04,VALID,0,VALID,90.5941,VALID,0,VALID,24.2671,VALID,112,VALID,0.310156,
2010-05-02, 03:31:04,VALID,1000.03,VALID,0,VALID,90.0219,VALID,0,VALID,24.2281,VALID,112,VALID,0.0769531,
2010-05-02, 03:32:04,VALID,999.98,VALID,0,VALID,89.7549,VALID,0,VALID,24.1305,VALID,88,VALID,0.471094,
2010-05-02, 03:33:04,VALID,999.976,VALID,0,VALID,89.8083,VALID,0,VALID,24.0525,VALID,78,VALID,0.327734,
2010-05-02, 03:34:04,VALID,1000,VALID,0,VALID,90.2431,VALID,0,VALID,23.9354,VALID,78,VALID,0,
2010-05-02, 03:35:04,VALID,999.953,VALID,0,VALID,90.6475,VALID,0,VALID,23.9159,VALID,78,VALID,0,
2010-05-02, 03:36:04,VALID,999.959,VALID,0,VALID,90.8764,VALID,0,VALID,23.8963,VALID,78,VALID,0,
2010-05-02, 03:37:04,VALID,999.953,VALID,0,VALID,91.0061,VALID,0,VALID,23.836,VALID,78,VALID,0,
2010-05-02, 03:38:04,VALID,999.954,VALID,0,VALID,91.1206,VALID,0,VALID,23.7988,VALID,78,VALID,0,
2010-05-02, 03:39:04,VALID,999.979,VALID,0,VALID,91.3266,VALID,0,VALID,23.7597,VALID,78,VALID,0.0015625,
2010-05-02, 03:40:04,VALID,999.985,VALID,0,VALID,91.6165,VALID,0,VALID,23.7988,VALID,78,VALID,0.127734,
2010-05-02, 03:41:04,VALID,999.967,VALID,0,VALID,91.8606,VALID,0,VALID,23.8183,VALID,78,VALID,0.298828,
2010-05-02, 03:42:04,VALID,999.957,VALID,0,VALID,91.853,VALID,0,VALID,23.7793,VALID,78,VALID,0.426562,
2010-05-02, 03:43:04,VALID,999.964,VALID,0,VALID,91.9598,VALID,0,VALID,23.7793,VALID,78,VALID,0.498437,
2010-05-02, 03:44:04,VALID,999.936,VALID,0,VALID,92.2192,VALID,0,VALID,23.7988,VALID,78,VALID,0.547656,
2010-05-02, 03:45:04,VALID,999.916,VALID,0,VALID,92.3489,VALID,0,VALID,23.8183,VALID,78,VALID,0.516406,
2010-05-02, 03:46:04,VALID,999.936,VALID,0,VALID,92.3871,VALID,0,VALID,23.8573,VALID,78,VALID,0.422266,
2010-05-02, 03:47:04,VALID,999.965,VALID,0,VALID,92.4405,VALID,0,VALID,23.8768,VALID,78,VALID,0.714063,
2010-05-02, 03:48:04,VALID,999.977,VALID,0,VALID,92.326,VALID,0,VALID,23.8768,VALID,78,VALID,0.798047,